Regional Weather Roundup
Issued by NWS

Home | Current Version | Previous Version | Graphics & Text | Print | Product List | Glossary Off
Versions: 1 2 3 4 5 6 7 8 9 10 11 12 13 14 15 16 17 18 19 20 21 22 23 24 25 26 27 28 29 30 31 32 33 34 35 36 37 38 39 40 41 42 43 44 45 46 47 48 49 50

000
ASUS43 KTOP 311759
RWRKS

WEATHER ROUNDUP FOR KANSAS
NATIONAL WEATHER SERVICE GOODLAND KS
100 PM CDT TUE MAY 31 2016

NOTE:  "FAIR" INDICATES FEW OR NO CLOUDS BELOW 12,000 FEET WITH NO
SIGNIFICANT WEATHER AND/OR OBSTRUCTIONS TO VISIBILITY.

KSZ001>006-013>018-027>032-041>047-311900-
NORTHWEST KANSAS

CITY           SKY/WX    TMP DP  RH WIND       PRES   REMARKS
GOODLAND       MOSUNNY   65  49  56 NE12G18   30.08F
6HR MIN TEMP:  50; 6HR MAX TEMP:  65;

HAYS           CLOUDY    70  55  60 N13G20    30.00F
HILL CITY      MOSUNNY   70  52  52 N15G23    30.04S
6HR MIN TEMP:  58; 6HR MAX TEMP:  70;

RUSSELL        MOSUNNY   70  60  70 N14       29.98S
6HR MIN TEMP:  59; 6HR MAX TEMP:  70;

$$

KSZ061>065-074>080-084>089-311900-
SOUTHWEST KANSAS

CITY           SKY/WX    TMP DP  RH WIND       PRES   REMARKS
DODGE CITY     CLOUDY    70  60  70 N15       30.01R
6HR MIN TEMP:  57; 6HR MAX TEMP:  70;

ELKHART          N/A     69  55  60 E5          N/A
GARDEN CITY    CLOUDY    68  56  65 N14       30.02S
6HR MIN TEMP:  56; 6HR MAX TEMP:  68; 6HR PCP: TRACE;

GREAT BEND     PTSUNNY   70  57  64 N13       29.97F
LIBERAL        CLOUDY    66  54  63 E9        30.05S
$$

KSZ066>073-081>083-090>101-311900-
SOUTHEAST KANSAS

CITY           SKY/WX    TMP DP  RH WIND       PRES   REMARKS
CHANUTE        PTSUNNY   75  67  76 N5        29.91F
6HR MIN TEMP:  63; 6HR MAX TEMP:  75; 6HR PCP:  0.01;

COFFEYVILLE    MOSUNNY   75  68  78 CALM      29.90F
6HR MIN TEMP:  63; 6HR MAX TEMP:  77; 6HR PCP:  0.07;

HUTCHINSON     MOSUNNY   76  62  62 VRB5      29.95R
6HR MIN TEMP:  62; 6HR MAX TEMP:  78; 6HR PCP: TRACE;

MEDICINE LODGE   N/A     76  57  51 N10       29.94F
NEWTON         SUNNY     73  61  64 NE6       29.98S
PARSONS        PTSUNNY   74  68  81 S3        29.92S
6HR MIN TEMP:  63; 6HR MAX TEMP:  75; 6HR PCP:  0.21;

WICHITA INTL   MOSUNNY   75  64  68 NE6       29.95R
6HR MIN TEMP:  63; 6HR MAX TEMP:  75; 6HR PCP:  0.23;

WICHITA JABRA  PTSUNNY   72  63  73 N9        29.95S
6HR MIN TEMP:  61; 6HR MAX TEMP:  72; 6HR PCP:  0.19;

WINFIELD       SUNNY     78  64  61 NE9       29.93F
6HR MIN TEMP:  62; 6HR MAX TEMP:  78; 6HR PCP:  0.40;

$$

KSZ007>012-019>026-033>040-048>060-102>105-311900-
NORTHEAST KANSAS

CITY           SKY/WX    TMP DP  RH WIND       PRES   REMARKS
CONCORDIA      CLOUDY    71  59  65 NE7       29.97S
6HR MIN TEMP:  59; 6HR MAX TEMP:  72;

EMPORIA        CLOUDY    70  62  76 N6        29.95S
6HR MIN TEMP:  60; 6HR MAX TEMP:  71; 6HR PCP:  0.01;

LAWRENCE       CLOUDY    74  65  73 CALM      29.94F
6HR MIN TEMP:  62; 6HR MAX TEMP:  74;

MANHATTAN      MOSUNNY   75  60  59 VRB3      29.94F
6HR MIN TEMP:  65; 6HR MAX TEMP:  76;

OLATHE IND     MOSUNNY   75  64  68 S7        29.95F
6HR MIN TEMP:  63; 6HR MAX TEMP:  75;

OLATHE EXE     CLOUDY    75  64  68 VRB6      29.95F
6HR MIN TEMP:  62; 6HR MAX TEMP:  75;

SALINA         PTSUNNY   73  61  65 N8        29.96F
6HR MIN TEMP:  63; 6HR MAX TEMP:  74;

TOPEKA BILLARD CLOUDY    74  62  66 S3        29.93F
6HR MIN TEMP:  64; 6HR MAX TEMP:  75;

TOPEKA FORBES  CLOUDY    75  62  64 VRB3      29.94F
6HR MIN TEMP:  63; 6HR MAX TEMP:  75;

$$




USA.gov is the U.S. government's official web portal to all federal, state and local government web resources and services.